Location: Corralito
(14.1667°N, 87.1833°W)
Time: 07:26:09
(UTC+00:00)

Nadezhda 4 Rocket - Pass Details

Date: 02 October 2020
Orbit: 949 x 993 km, 82.9° (Epoch: 20 October)

Event Time Altitude Azimuth Distance (km) Brightness Sun altitude
Rises 01:57:04 0° 321° (NW) 3,628 7.5 -34.6°
Reaches altitude 10° 02:01:35 10° 290° (WNW) 2,691 7.0 -35.7°
Maximum altitude 02:03:30 12° 272° (W) 2,583 6.9 -36.1°
Drops below altitude 10° 02:05:26 10° 253° (WSW) 2,700 7.0 -36.6°
Sets 02:10:01 0° 222° (SW) 3,657 7.4 -37.7°
